Regional Weather Roundup
Issued by NWS

Home | Current Version | Previous Version | Graphics & Text | Print | Product List | Glossary On
Versions: 1 2 3 4 5 6 7 8 9 10 11 12 13 14 15 16 17 18 19 20 21 22 23 24 25 26 27 28 29 30 31 32 33 34 35 36 37 38 39 40 41 42 43 44 45 46 47 48 49 50
000
ASUS44 KMEG 192310
RWRTN
TENNESSEE HOURLY STATE WEATHER ROUNDUP
NATIONAL WEATHER SERVICE MEMPHIS TN
600 PM CDT SAT AUG 19 2017

TNZ002-004-019-021-049-052-054-088>092-200000-
WEST TENNESSEE

CITY           SKY/WX    TMP DP  RH WIND       PRES   REMARKS
MEMPHIS INTL   MOSUNNY   93  72  50 NW6       29.93S HX 101
NWS MEMPHIS      N/A     91 N/A N/A MISG        N/A
JACKSON        SUNNY     90  72  55 NW7       29.94S HX  97
DYERSBURG      SUNNY     90  72  55 W5        29.94S HX  97
SOMERVILLE     SUNNY     90  73  58 NW3       29.93S HX  98
COVINGTON      SUNNY     90  75  62 NE3       29.93F HX 100
UNION CITY     SUNNY     90  73  58 CALM      29.92S HX  98
BOLIVAR        MOSUNNY   90  73  58 W5        29.93F HX  98
PARIS          SUNNY     88  72  58 W3        29.93S HX  94
HUNTINGDON     SUNNY     90  72  55 CALM      29.93S HX  96
LEXINGTON      SUNNY     90  72  55 CALM      29.93F HX  96
SELMER         MOSUNNY   90  72  55 NW3       29.94S HX  96
SAVANNAH       SUNNY     90  73  58 CALM      29.92F HX  98
$$

TNZ008-025-027-028-033-062-065-066-200000-
NORTH MIDDLE TENNESSEE

CITY           SKY/WX    TMP DP  RH WIND       PRES   REMARKS
NASHVILLE      MOSUNNY   90  64  42 W8        29.95F HX  91
PORTLAND       MOSUNNY   86  68  54 CALM      29.96S
CLARKSVILLE    PTSUNNY   87  72  60 NE9       29.94S HX  93
SMYRNA         SUNNY     89  69  51 SW8       29.95F HX  93
COOKEVILLE     SUNNY     84  66  54 SW3       29.98S
GALLATIN       SUNNY     90  66  45 CALM      29.97F HX  92
CROSSVILLE     SUNNY     81  62  52 W6        30.04S
$$

TNZ061-075-076-078-094-096-097-200000-
SOUTH MIDDLE TENNESSEE

CITY           SKY/WX    TMP DP  RH WIND       PRES   REMARKS
FAYETTEVILLE   SUNNY     86  66  51 S3        29.97S
TULLAHOMA      SUNNY     86  63  45 CALM      30.00S
WINCHESTER     SUNNY     86  66  51 N3        29.99S
MCMINNVILLE    SUNNY     88  70  55 W3        29.99F HX  92
COLUMBIA       MOSUNNY   88  70  55 S3        29.93F HX  92
SHELBYVILLE    SUNNY     86  68  54 CALM      29.97S
$$

TNZ017-018-042-046-047-200000-
NORTHEAST TENNESSEE

CITY           SKY/WX    TMP DP  RH WIND       PRES   REMARKS
TRI CITIES     SUNNY     84  64  50 W3        30.01S
ELIZABETHTON   SUNNY     81  70  69 CALM      30.01S
$$

TNZ012-013-036-069-073-074-200000-
CENTRAL EAST TENNESSEE

CITY           SKY/WX    TMP DP  RH WIND       PRES   REMARKS
KNOXVILLE      SUNNY     86  58  38 W3        29.97S
OAK RIDGE      SUNNY     87  64  46 SW5       29.98F
DOWNTOWN KNOXV SUNNY     88  68  51 CALM      29.96S HX  91
GATLINBURG     SUNNY     86  61  42 NW5       29.97S
MORRISTOWN     SUNNY     84  64  51 VRB5      29.99S
JACKSBORO      SUNNY     86  70  58 SW5       30.01S HX  90
$$

TNZ083-085-099-200000-
SOUTHEAST TENNESSEE

CITY           SKY/WX    TMP DP  RH WIND       PRES   REMARKS
CHATTANOOGA    MOSUNNY   89  62  40 SW6       29.96F
DAYTON         CLEAR     88  72  58 SW6       29.95F HX  94
$$

SKY/WX REPORTED AS FAIR MEANS FEW OR NO CLOUDS BELOW
12 THOUSAND FEET.





USA.gov is the U.S. government's official web portal to all federal, state and local government web resources and services.